Regional Weather Roundup
Issued by NWS

Home | Current Version | Previous Version | Graphics & Text | Print | Product List | Glossary On
Versions: 1 2 3 4 5 6 7 8 9 10 11 12 13 14 15 16 17 18 19 20 21 22 23 24 25 26 27 28 29 30 31 32 33 34 35 36 37 38 39 40 41 42 43 44 45 46 47 48 49 50
000
ASUS45 KBOU 200507
RWRCO

WEATHER ROUNDUP FOR COLORADO
NATIONAL WEATHER SERVICE DENVER/BOULDER CO
1000 PM MST FRI DEC 19 2014

NOTE: "FAIR" INDICATES FEW OR NO CLOUDS BELOW 12000 FEET WITH NO
SIGNIFICANT WEATHER AND/OR OBSTRUCTIONS TO VISIBILITY.

COZ001>005-013-030-031-200600-
...NORTHWEST COLORADO...

CITY           SKY/WX    TMP DP  RH WIND       PRES   REMARKS
CRAIG          CLOUDY    19  15  84 CALM      30.18S
HAYDEN         PTCLDY    19  14  79 SE10      30.16S WCI   8
MEEKER         CLOUDY    18  13  80 CALM      30.18S
MOUNT WERNER   NOT AVBL
STEAMBOAT SPGS MOCLDY    14  12  92 CALM      30.18R
WALDEN         MOCLDY    16  10  79 SE7       30.12F WCI   6
$$

COZ006>008-011-200600-
...WEST CENTRAL VALLEYS...

CITY           SKY/WX    TMP DP  RH WIND       PRES   REMARKS
GRAND JUNCTION PTCLDY    29  27  92 E6        30.21S WCI  23
MONTROSE       CLEAR     27  22  81 SE7       30.23S WCI  19
EAGLE          CLEAR     18  16  93 CALM      30.22S
RIFLE          PTCLDY    25  20  81 SE5       30.22S WCI  19
DELTA          CLEAR     30  24  79 N5        30.23S WCI  25
NUCLA          CLEAR     28  25  86 E9        30.25S WCI  20
$$

COZ017>023-064>068-200600-
...SOUTHWEST COLORADO...

CITY           SKY/WX    TMP DP  RH WIND       PRES   REMARKS
DURANGO        PTCLDY    25  23  92 E5        30.18S WCI  19
CORTEZ         CLEAR     25  23  92 NE7       30.21S WCI  17
PAGOSA SPRINGS PTCLDY    19  17  95 CALM      30.19S
TELLURIDE      PTCLDY    18  13  80 SE6       30.18F WCI  10
WOLF CREEK PAS PTCLDY    19   1  45 MISG      30.15S
$$

COZ009-010-012-014-032>034-037-058>063-200600-
...CENTRAL COLORADO...

CITY           SKY/WX    TMP DP  RH WIND       PRES   REMARKS
ASPEN          PTCLDY    12   6  77 CALM      30.16S
BUENA VISTA    PTCLDY    17   8  70 W6        30.13F WCI   8
COPPER MTN     PTCLDY    18  10  73 SW10      30.10F WCI   6
BERTHOUD PASS  FAIR      10   5  79 MISG      30.06S
COTTONWOOD PAS PTCLDY    27   9  46 NW3       30.11F
GUNNISON       CLEAR     14   7  73 CALM      30.22S
KREMMLING      PTCLDY    10   7  85 CALM      30.21R
LEADVILLE      PTCLDY    11   3  70 NE10      30.10F WCI  -3
MONARCH PASS     N/A     10   9  92 MISG      30.23S
SALIDA         PTCLDY    29  13  50 NW8       30.19S WCI  22
SUNLIGHT       PTCLDY   N/A N/A N/A CALM      30.16S
WILKERSON PASS PTCLDY    21   9  58 NW10G18   30.12R WCI  10
$$

COZ069>075-200600-
...SAN LUIS VALLEY/SANGRE DE CRISTO MOUNTAINS...

CITY           SKY/WX    TMP DP  RH WIND       PRES   REMARKS
ALAMOSA        MOCLDY    13   9  84 SW7       30.16S WCI   3
LA VETA PASS   NOT AVBL
SAGUACHE       MOCLDY    23  12  63 NW8       30.17S WCI  14
$$

COZ035-036-038>040-200600-
...NORTHERN COLORADO FRONT RANGE...

CITY           SKY/WX    TMP DP  RH WIND       PRES   REMARKS
DENVER INTL AP MOCLDY    31  16  54 SW8       29.99F WCI  23
DMNS CITY PARK   N/A     33  16  49 S5        30.00S WCI  28
AURORA         MOCLDY    31  17  55 S9        30.01F WCI  23
FRONT RANGE AP MOCLDY    32  21  64 S10G17    30.00F WCI  24
ERIE MUNI ARPT   N/A     26  16  67 SW5       29.99F WCI  20
BOULDER MUN AP MOCLDY    34  18  51 CALM      29.99S
CENTENNIAL     CLOUDY    33  16  49 S10       30.00F WCI  25
BROOMFIELD     NOT AVBL
FORT COLLINS   PTCLDY    28  18  64 S8        30.01R WCI  20
LONGMONT       PTCLDY    25  17  73 CALM      30.02S
$$

COZ041-046-047-076>085-087-088-200600-
...PIKES PEAK/PALMER DIVIDE AND SOUTHERN FOOTHILLS...

CITY           SKY/WX    TMP DP  RH WIND       PRES   REMARKS
COLO. SPRINGS  MOCLDY    25  17  72 NE5       30.06S WCI  19
A. F. ACADEMY  PTCLDY    20  13  74 N8        30.05S WCI  10
ELLICOTT       NOT AVBL
FALCON         MOCLDY    23  16  75 W3        30.06S
FORT CARSON    MOCLDY    25  17  70 NW6       30.04F WCI  18
LIMON          CLOUDY    21  18  88 N3        30.04F
MONUMENT HILL  MOCLDY    27  16  63 S12       30.02S WCI  16
TRINIDAD       CLEAR     25  16  68 W9        30.07R WCI  15
$$

COZ042>045-048>051-090-091-200600-
...NORTHEAST COLORADO...

CITY           SKY/WX    TMP DP  RH WIND       PRES   REMARKS
GREELEY ARPT   PTCLDY    18   9  68 NW3       30.00R
AKRON          MOCLDY    31  23  72 S12       30.01F WCI  22
BURLINGTON     MOCLDY    30  25  81 SW9       30.04F WCI  22
WRAY           CLEAR     30  24  80 W12       30.04S WCI  20
STERLING         N/A     16  14  93 CALM      30.02S FOG
HOLYOKE        CLEAR     25  19  80 W7        30.03S WCI  17
FORT MORGAN    MOCLDY    28  20  72 W5        30.02S WCI  23
$$

COZ086-089-092>099-200600-
...SOUTHEAST COLORADO...

CITY           SKY/WX    TMP DP  RH WIND       PRES   REMARKS
PUEBLO         MOCLDY    27  21  78 W5        30.05S WCI  22
LA JUNTA       PTCLDY    28  23  81 E6        30.06S WCI  22
LAMAR          CLEAR     20  19  96 W5        30.06S WCI  13
SPRINGFIELD      N/A     26  24  92 SW7       30.06S WCI  18
$$



USA.gov is the U.S. government's official web portal to all federal, state and local government web resources and services.